Falfurrias, TX

11:23 AM CDT on October 19, 2019 (GMT -0500)
Falfurrias

Weather History for KBKS - August, 2019

Change the Weather History Date:

Tuesday, August 20, 2019

  Actual Average (WUND) Record (WUND)
Temperature  
Mean Temperature 90 °F -  
Max Temperature 171 °F - - (-1)
Min Temperature 78 °F - - (-1)
Cooling Degree Days 25    
Growing Degree Days 40 (Base 50)    
Moisture  
Dew Point 72 °F    
Average Humidity 61    
Maximum Humidity 92    
Minimum Humidity 26    
Precipitation  
Precipitation 0.00 in - - ()
Sea Level Pressure  
Sea Level Pressure 29.97 in    
Wind  
Wind Speed 7 mph ()    
Max Wind Speed 17 mph    
Max Gust Speed 25 mph    
Visibility 8.6 miles    
Events      
Averages and records for this station are not official NWS values.
T = Trace of Precipitation, MM = Missing Value Source: Averaged Metar Reports

Daily Weather History Graph

Daily Weather History Graph

Search for Another Location

Airport or City:

Astronomy

Aug. 20, 2019 Rise Set
Actual Time 7:06 AM CDT 8:05 PM CDT
Civil Twilight 6:41 AM CDT 8:29 PM CDT
Nautical Twilight 6:13 AM CDT 8:57 PM CDT
Astronomical Twilight 5:43 AM CDT 9:27 PM CDT
Moon 11:20 PM CDT (8/20) 11:22 AM CDT (8/20)
Length of Visible Light 13h 47m
Length of Day
12h 59m
Waning Gibbous, 77% of the Moon is Illuminated
Aug 20
Waning Gibbous
Aug 23
Last Quarter
Aug 30
New
Sep 5
First Quarter
Sep 13
Full

Hourly Weather History & Observations

Time (CDT) Temp. Heat Index Dew Point Humidity Pressure Visibility Wind Dir Wind Speed Gust Speed Precip Events Conditions
12:15 AM 85.3 °F 96.7 °F 77.9 °F 78% 29.97 in 7.0 mi SE 8.1 mph - N/A   Clear
12:35 AM 85.1 °F 96.7 °F 78.1 °F 79% 29.96 in 7.0 mi SE 8.1 mph - N/A   Clear
12:55 AM 84.7 °F 96.1 °F 77.9 °F 80% 29.97 in 7.0 mi SE 5.8 mph - N/A   Clear
1:15 AM 84.6 °F 95.5 °F 77.9 °F 80% 29.97 in 7.0 mi SE 6.9 mph - N/A   Clear
1:35 AM 84.2 °F 94.9 °F 77.9 °F 81% 29.97 in 7.0 mi SE 5.8 mph - N/A   Clear
1:55 AM 84.2 °F 94.9 °F 77.9 °F 81% 29.97 in 7.0 mi SE 6.9 mph - N/A   Clear
2:15 AM 83.8 °F 94.3 °F 77.7 °F 82% 29.97 in 7.0 mi SE 5.8 mph - N/A   Clear
2:35 AM 83.5 °F 93.3 °F 77.5 °F 82% 29.97 in 7.0 mi SE 5.8 mph - N/A   Clear
2:55 AM 83.3 °F 93.1 °F 77.5 °F 83% 29.96 in 7.0 mi SE 5.8 mph - N/A   Clear
3:15 AM 82.9 °F 92.4 °F 77.5 °F 84% 29.96 in 7.0 mi SE 4.6 mph - N/A   Clear
3:35 AM 82.6 °F 91.4 °F 77.4 °F 84% 29.96 in 7.0 mi SE 4.6 mph - N/A   Clear
3:55 AM 82.4 °F 91.2 °F 77.4 °F 85% 29.95 in 7.0 mi Calm Calm - N/A   Clear
4:15 AM 82.0 °F 90.5 °F 77.5 °F 86% 29.95 in 7.0 mi SE 3.5 mph - N/A   Clear
4:35 AM 81.7 °F 89.7 °F 77.4 °F 87% 29.95 in 7.0 mi SE 3.5 mph - N/A   Scattered Clouds
4:55 AM 81.7 °F 89.7 °F 77.5 °F 87% 29.95 in 7.0 mi SE 3.5 mph - N/A   Scattered Clouds
5:15 AM 81.5 °F 89.2 °F 77.4 °F 87% 29.95 in 7.0 mi SE 3.5 mph - N/A   Clear
5:35 AM 81.3 °F 89.0 °F 77.4 °F 88% 29.95 in 7.0 mi SSE 4.6 mph - N/A   Clear
6:15 AM 80.8 °F 87.4 °F 77.0 °F 88% 29.95 in 7.0 mi ESE 3.5 mph - N/A   Clear
6:35 AM 79.0 °F - 75.9 °F 90% 29.96 in 5.0 mi East 3.5 mph - N/A   Clear
6:55 AM 78.8 °F - 75.7 °F 90% 29.96 in 4.0 mi East 3.5 mph - N/A   Clear
7:15 AM 78.4 °F - 75.7 °F 91% 29.97 in 4.0 mi East 3.5 mph - N/A   Clear
7:35 AM 78.4 °F - 75.9 °F 92% 29.98 in 3.0 mi Calm Calm - N/A   Unknown
8:15 AM 80.1 °F 85.8 °F 77.0 °F 90% 29.99 in 5.0 mi East 4.6 mph - N/A   Clear
8:35 AM 82.4 °F 90.9 °F 77.0 °F 84% 30.00 in 7.0 mi SE 5.8 mph - N/A   Clear
8:55 AM 85.1 °F 94.9 °F 76.5 °F 75% 30.00 in 7.0 mi SE 10.4 mph - N/A   Clear
9:15 AM 86.9 °F 97.3 °F 76.1 °F 70% 30.01 in 7.0 mi SE 8.1 mph - N/A   Clear
9:35 AM 88.3 °F 98.9 °F 75.7 °F 66% 30.01 in 7.0 mi South 11.5 mph - N/A   Scattered Clouds
9:55 AM 89.6 °F 98.2 °F 73.4 °F 59% 30.01 in 10.0 mi South 13.8 mph 17.3 mph N/A   Scattered Clouds
10:15 AM 90.7 °F 98.5 °F 72.5 °F 55% 30.01 in 10.0 mi SSE 10.4 mph 18.4 mph N/A   Scattered Clouds
10:35 AM 91.2 °F 99.1 °F 72.7 °F 54% 30.01 in 10.0 mi South 10.4 mph - N/A   Scattered Clouds
10:55 AM 93.6 °F 100.1 °F 70.3 °F 47% 30.01 in 10.0 mi SSE 12.7 mph 16.1 mph N/A   Scattered Clouds
11:15 AM 93.9 °F 100.3 °F 70.3 °F 46% 30.01 in 10.0 mi SE 10.4 mph - N/A   Clear
11:35 AM 94.6 °F 100.0 °F 68.7 °F 43% 30.01 in 10.0 mi SE 10.4 mph 18.4 mph N/A   Clear
11:55 AM 95.7 °F 100.3 °F 67.6 °F 40% 30.01 in 10.0 mi SSE 15.0 mph 20.7 mph N/A   Clear
12:15 PM 96.4 °F 100.6 °F 66.7 °F 38% 30.01 in 10.0 mi SE 10.4 mph 24.2 mph N/A   Clear
12:35 PM 97.3 °F 101.1 °F 66.6 °F 36% 30.00 in 10.0 mi SE 11.5 mph 19.6 mph N/A   Clear
12:55 PM 97.9 °F 100.9 °F 65.3 °F 34% 29.99 in 10.0 mi South 12.7 mph 20.7 mph N/A   Clear
1:15 PM 99.5 °F 102.0 °F 64.2 °F 31% 29.98 in 10.0 mi ESE 13.8 mph 19.6 mph N/A   Scattered Clouds
1:35 PM 98.8 °F 100.8 °F 63.7 °F 31% 29.97 in 10.0 mi SE 6.9 mph 17.3 mph N/A   Clear
1:55 PM 99.5 °F 100.4 °F 60.8 °F 28% 29.96 in 10.0 mi SSE 10.4 mph 23.0 mph N/A   Scattered Clouds
2:15 PM 102.0 °F 103.3 °F 60.8 °F 26% 29.96 in 10.0 mi South 5.8 mph 16.1 mph N/A   Scattered Clouds
2:35 PM 101.5 °F 103.6 °F 63.1 °F 28% 29.95 in 10.0 mi ESE 15.0 mph - N/A   Scattered Clouds
2:55 PM 102.2 °F 105.5 °F 64.6 °F 29% 29.94 in 10.0 mi SE 11.5 mph 18.4 mph N/A   Scattered Clouds
3:15 PM 99.9 °F 104.6 °F 67.3 °F 34% 29.94 in 10.0 mi SE 13.8 mph 19.6 mph N/A   Scattered Clouds
3:35 PM 100.2 °F 106.0 °F 67.8 °F 35% 29.93 in 10.0 mi ESE 11.5 mph 19.6 mph N/A   Scattered Clouds
3:55 PM 100.9 °F 106.7 °F 68.2 °F 34% 29.93 in 10.0 mi SE 15.0 mph 23.0 mph N/A   Clear
4:15 PM 100.2 °F 106.0 °F 68.0 °F 35% 29.93 in 10.0 mi SSE 17.3 mph - N/A   Clear
4:35 PM 100.6 °F 106.7 °F 68.2 °F 35% 29.92 in 10.0 mi SE 16.1 mph 21.9 mph N/A   Clear
4:55 PM 100.2 °F 106.7 °F 68.7 °F 36% 29.93 in 10.0 mi SE 15.0 mph 20.7 mph N/A   Clear
5:15 PM 99.3 °F 106.3 °F 69.3 °F 38% 29.92 in 10.0 mi SE 12.7 mph 21.9 mph N/A   Scattered Clouds
5:35 PM 98.6 °F 105.5 °F 69.6 °F 39% 29.93 in 10.0 mi ESE 15.0 mph 24.2 mph N/A   Scattered Clouds
5:55 PM 98.2 °F 104.7 °F 69.6 °F 39% 29.93 in 10.0 mi SE 15.0 mph 20.7 mph N/A   Scattered Clouds
6:15 PM 97.7 °F 104.3 °F 69.6 °F 40% 29.93 in 10.0 mi SE 12.7 mph 20.7 mph N/A   Scattered Clouds
6:35 PM 96.4 °F 101.7 °F 68.4 °F 40% 29.93 in 10.0 mi SE 15.0 mph 18.4 mph N/A   Clear
6:55 PM 94.8 °F 101.5 °F 70.7 °F 45% 29.94 in 10.0 mi ESE 15.0 mph 25.3 mph N/A   Clear
7:15 PM 92.7 °F 98.3 °F 70.0 °F 47% 29.95 in 10.0 mi ESE 15.0 mph 20.7 mph N/A   Clear
7:35 PM 91.2 °F 96.5 °F 69.8 °F 49% 29.95 in 10.0 mi ESE 12.7 mph 21.9 mph N/A   Clear
7:55 PM 90.0 °F 95.9 °F 70.5 °F 53% 29.95 in 10.0 mi ESE 10.4 mph - N/A   Clear
8:15 PM 89.1 °F 95.0 °F 71.1 °F 55% 29.96 in 10.0 mi SE 11.5 mph 18.4 mph N/A   Clear
8:35 PM 88.3 °F 94.5 °F 71.2 °F 57% 29.96 in 10.0 mi ESE 9.2 mph - N/A   Clear
8:55 PM 87.6 °F 93.9 °F 71.6 °F 59% 29.96 in 10.0 mi ESE 8.1 mph - N/A   Clear
9:15 PM 86.9 °F 93.3 °F 72.1 °F 61% 29.97 in 10.0 mi ESE 5.8 mph - N/A   Clear
9:35 PM 86.4 °F 93.0 °F 72.5 °F 63% 29.98 in 10.0 mi SE 8.1 mph - N/A   Clear
9:55 PM 86.0 °F 92.6 °F 72.5 °F 64% 29.98 in 10.0 mi SE 6.9 mph - N/A   Clear
10:15 PM 85.5 °F 91.8 °F 72.7 °F 65% 29.98 in 10.0 mi ESE 9.2 mph - N/A   Clear
10:35 PM 85.1 °F 92.2 °F 73.4 °F 68% 29.99 in 10.0 mi SE 6.9 mph - N/A   Clear
10:55 PM 84.4 °F 91.7 °F 73.9 °F 71% 29.99 in 10.0 mi ESE 5.8 mph - N/A   Clear
11:15 PM 83.5 °F 90.3 °F 73.9 °F 73% 29.99 in 10.0 mi ESE 4.6 mph - N/A   Clear
11:35 PM 83.3 °F 90.2 °F 74.3 °F 74% 29.99 in 10.0 mi ESE 4.6 mph - N/A   Clear
11:55 PM 82.6 °F 89.1 °F 74.3 °F 76% 29.99 in 10.0 mi ESE 3.5 mph - N/A   Clear